User: anonymous   Login
Location: Unspecified
(0.0000°N, 0.0000°E)
Time: 22:22:12
(UTC+00:00)
Language:

ONEWEB-0593 - Orbit

View from above orbital plane
View from above orbital plane
View from above satellite
View from above satellite

Ground track
Ground track

The orbit is defined by the following mean orbital elements,

1 54659U          26145.55014044 +.00000000 +00000-0 +35336-3 0 00006
2 54659  87.9253 248.4797 0002070  95.9003 264.2367 13.21826881    01
Epoch (UTC): 25 May 2026 13:12:12
Eccentricity: 0.0002070
inclination: 87.9253°
perigee height: 1176 km
apogee height: 1179 km
right ascension of ascending node: 248.4797°
argument of perigee: 95.9003°
revolutions per day: 13.21826881
mean anomaly at epoch: 264.2367°

The dashed part of the orbit path shows where the satellite is in the earth's shadow,  

DLR